Weather History for Fort Lewis, WA

Change the Weather History Date:

Wednesday, September 4, 2013

  Actual Average Record
Temperature  
Mean Temperature 62 °F -  
Max Temperature 70 °F 72 °F 91 °F (2003)
Min Temperature 55 °F 49 °F 42 °F (2002)
Degree Days  
Heating Degree Days 3    
Growing Degree Days 12 (Base 50)    
Moisture  
Dew Point 59 °F    
Average Humidity 89    
Maximum Humidity 100    
Minimum Humidity 71    
Precipitation  
Precipitation 0.01 in - - ()
Sea Level Pressure  
Sea Level Pressure 30.03 in    
Wind  
Wind Speed 3 mph (NNW)    
Max Wind Speed 10 mph    
Max Gust Speed -    
Visibility 10 miles    
Events Rain    
Averages and records for this station are not official NWS values.
T = Trace of Precipitation, MM = Missing Value Source: NWS Daily Summary

Daily Weather History Graph

Daily Weather History Graph

Search for Another Location

Airport:

Trip Planner

Search our weather history database for the weather conditions in past years. The results will help you decide how hot, cold, wet, or windy it might be!

Date:

Astronomy

Sep. 04, 2013 Rise Set
Actual Time 6:34 AM PDT 7:43 PM PDT
Civil Twilight 6:02 AM PDT 8:14 PM PDT
Nautical Twilight 5:24 AM PDT 8:52 PM PDT
Astronomical Twilight 4:44 AM PDT 9:32 PM PDT
Moon 5:52 AM PDT (9/4) 7:03 PM PDT (9/4)
Length of Visible Light 14h 12m
Length of Day
13h 09m
Waning Crescent, 1% of the Moon is Illuminated
Sep 4
Waning Crescent
Sep 5
New
Sep 12
First Quarter
Sep 19
Full
Sep 26
Last Quarter

Hourly Weather History & Observations

Time (PDT) Temp. Dew Point Humidity Pressure Visibility Wind Dir Wind Speed Gust Speed Precip Events Conditions
12:58 AM 58.8 °F 57.4 °F 95% 30.04 in 10.0 mi East 3.5 mph - N/A   Clear
1:58 AM 58.6 °F 57.7 °F 97% 30.02 in 10.0 mi Calm Calm - N/A   Clear
2:58 AM 57.6 °F 55.9 °F 94% 30.02 in 10.0 mi SE 4.6 mph - N/A   Clear
2:59 AM 57.2 °F 55.4 °F 94% 30.02 in 10.0 mi SE 4.6 mph - N/A Rain Light Rain
3:08 AM 55.4 °F 55.4 °F 100% 30.02 in 10.0 mi SSE 5.8 mph - N/A   Clear
3:37 AM 57.2 °F 55.4 °F 94% 30.02 in 10.0 mi SSE 4.6 mph - N/A   Clear
3:58 AM 56.3 °F 55.9 °F 99% 30.02 in 10.0 mi SE 2.3 mph - 0.00 in Rain Light Rain
4:09 AM 55.4 °F 55.4 °F 100% 30.02 in 10.0 mi SSE 3.5 mph - N/A   Mostly Cloudy
4:44 AM 57.2 °F 57.2 °F 100% 30.01 in 10.0 mi NNW 2.3 mph - N/A   Scattered Clouds
4:54 AM 57.2 °F 57.2 °F 100% 30.01 in 10.0 mi Calm Calm - N/A   Mostly Cloudy
4:58 AM 57.7 °F 57.2 °F 98% 30.02 in 10.0 mi Calm Calm - 0.00 in   Mostly Cloudy
5:03 AM 57.2 °F 57.2 °F 100% 30.01 in 10.0 mi West 3.5 mph - N/A   Mostly Cloudy
5:34 AM 59.0 °F 57.2 °F 94% 30.01 in 10.0 mi North 2.3 mph - N/A   Overcast
5:37 AM 59.0 °F 59.0 °F 100% 30.01 in 10.0 mi NW 2.3 mph - N/A   Light Drizzle
5:42 AM 59.0 °F 59.0 °F 100% 30.01 in 10.0 mi West 2.3 mph - N/A   Light Drizzle
5:48 AM 59.0 °F 59.0 °F 100% 30.01 in 10.0 mi West 3.5 mph - N/A   Overcast
5:58 AM 59.4 °F 58.8 °F 98% 30.02 in 10.0 mi NW 2.3 mph - 0.00 in   Overcast
5:59 AM 59.0 °F 59.0 °F 100% 30.01 in 10.0 mi NNW 2.3 mph - N/A   Overcast
6:19 AM 59.0 °F 59.0 °F 100% 30.01 in 10.0 mi NNW 1.2 mph - N/A   Overcast
6:31 AM 59.0 °F 59.0 °F 100% 30.01 in 10.0 mi NW 2.3 mph - N/A Rain Light Rain
6:41 AM 59.0 °F 59.0 °F 100% 30.02 in 10.0 mi Calm Calm - N/A   Overcast
6:46 AM 59.0 °F 59.0 °F 100% 30.02 in 10.0 mi Calm Calm - N/A   Overcast
6:58 AM 59.9 °F 59.5 °F 99% 30.03 in 10.0 mi Calm Calm - 0.00 in   Mostly Cloudy
7:08 AM 60.8 °F 59.0 °F 94% 30.01 in 10.0 mi NNE 2.3 mph - N/A   Mostly Cloudy
7:13 AM 60.8 °F 59.0 °F 94% 30.02 in 10.0 mi NNE 2.3 mph - N/A   Mostly Cloudy
7:14 AM 60.8 °F 59.0 °F 94% 30.02 in 10.0 mi NE 3.5 mph - N/A   Mostly Cloudy
7:27 AM 60.8 °F 59.0 °F 94% 30.02 in 10.0 mi ESE 2.3 mph - N/A Rain Light Rain
7:49 AM 60.8 °F 60.8 °F 100% 30.04 in 10.0 mi SSE 4.6 mph - N/A   Mostly Cloudy
7:58 AM 60.6 °F 59.9 °F 97% 30.04 in 10.0 mi Calm Calm - 0.00 in   Overcast
7:59 AM 60.8 °F 59.0 °F 94% 30.03 in 10.0 mi Calm Calm - N/A   Light Drizzle
8:17 AM 62.6 °F 60.8 °F 94% 30.02 in 10.0 mi NNE 5.8 mph - N/A   Mostly Cloudy
8:57 AM 62.6 °F 60.8 °F 94% 30.04 in 10.0 mi SSE 4.6 mph - N/A   Mostly Cloudy
8:58 AM 63.0 °F 60.3 °F 91% 30.05 in 10.0 mi SSE 4.6 mph - 0.01 in   Mostly Cloudy
9:11 AM 62.6 °F 59.0 °F 88% 30.04 in 10.0 mi Calm Calm - N/A   Light Drizzle
9:16 AM 62.6 °F 59.0 °F 88% 30.04 in 10.0 mi West 1.2 mph - N/A Rain Heavy Rain
9:21 AM 62.6 °F 59.0 °F 88% 30.04 in 10.0 mi NNW 1.2 mph - N/A Rain Heavy Rain
9:46 AM 64.4 °F 60.8 °F 88% 30.04 in 10.0 mi NNW 3.5 mph - N/A   Overcast
9:58 AM 64.4 °F 60.3 °F 86% 30.05 in 10.0 mi Variable 4.6 mph - 0.00 in   Overcast
10:03 AM 64.4 °F 60.8 °F 88% 30.04 in 10.0 mi NNW 6.9 mph - N/A   Overcast
10:08 AM 64.4 °F 60.8 °F 88% 30.04 in 10.0 mi North 5.8 mph - N/A   Overcast
10:13 AM 64.4 °F 59.0 °F 83% 30.04 in 10.0 mi North 5.8 mph - N/A Rain Light Rain
10:31 AM 64.4 °F 59.0 °F 83% 30.04 in 10.0 mi Variable 2.3 mph - N/A   Overcast
10:46 AM 66.2 °F 59.0 °F 78% 30.04 in 10.0 mi North 3.5 mph - N/A   Overcast
10:58 AM 66.4 °F 59.7 °F 79% 30.05 in 10.0 mi North 3.5 mph - 0.00 in   Overcast
11:58 AM 66.7 °F 59.9 °F 79% 30.05 in 10.0 mi NW 5.8 mph - N/A   Overcast
12:58 PM 67.1 °F 59.7 °F 77% 30.06 in 10.0 mi WNW 10.4 mph - N/A   Overcast
1:18 PM 66.2 °F 59.0 °F 78% 30.05 in 10.0 mi NW 9.2 mph - N/A   Mostly Cloudy
1:53 PM 68.0 °F 60.8 °F 78% 30.05 in 10.0 mi WNW 6.9 mph - N/A   Mostly Cloudy
1:58 PM 68.4 °F 59.7 °F 74% 30.06 in 10.0 mi Variable 4.6 mph - N/A   Mostly Cloudy
2:48 PM 68.0 °F 60.8 °F 78% 30.05 in 10.0 mi West 6.9 mph - N/A   Mostly Cloudy
2:58 PM 68.7 °F 60.3 °F 74% 30.06 in 10.0 mi Variable 2.3 mph - N/A   Mostly Cloudy
3:58 PM 68.7 °F 59.9 °F 73% 30.05 in 10.0 mi North 4.6 mph - N/A   Mostly Cloudy
4:58 PM 69.8 °F 60.1 °F 71% 30.04 in 10.0 mi North 4.6 mph - N/A   Overcast
5:13 PM 69.8 °F 60.8 °F 73% 30.04 in 10.0 mi WNW 2.3 mph - N/A   Overcast
5:53 PM 68.0 °F 60.8 °F 78% 30.04 in 10.0 mi WNW 8.1 mph - N/A   Scattered Clouds
5:58 PM 68.5 °F 60.4 °F 75% 30.06 in 10.0 mi WNW 6.9 mph - N/A   Scattered Clouds
6:58 PM 68.2 °F 59.7 °F 74% 30.05 in 10.0 mi North 3.5 mph - N/A   Clear
7:28 PM 68.0 °F 59.0 °F 73% 30.04 in 10.0 mi NNE 4.6 mph - N/A   Mostly Cloudy
7:33 PM 68.0 °F 59.0 °F 73% 30.04 in 10.0 mi NNE 4.6 mph - N/A   Mostly Cloudy
7:58 PM 67.8 °F 59.7 °F 75% 30.04 in 10.0 mi NE 4.6 mph - N/A   Clear
8:58 PM 65.8 °F 59.2 °F 79% 30.05 in 10.0 mi ESE 2.3 mph - N/A   Mostly Cloudy
9:58 PM 64.0 °F 59.2 °F 84% 30.05 in 10.0 mi NE 1.2 mph - N/A   Overcast
10:58 PM 65.3 °F 59.5 °F 82% 30.06 in 10.0 mi West 4.6 mph - N/A   Scattered Clouds
11:26 PM 64.4 °F 59.0 °F 83% 30.04 in 10.0 mi Variable 5.8 mph - N/A Rain Light Rain
11:38 PM 64.4 °F 60.8 °F 88% 30.04 in 10.0 mi West 4.6 mph - N/A   Partly Cloudy
11:58 PM 63.5 °F 59.7 °F 87% 30.05 in 10.0 mi West 6.9 mph - 0.00 in   Clear